Back to catalog

CZ-4 DEB

AliveSSO
NORAD 35382·DEBRIS·🇨🇳 China

Launched Oct 21, 2003 from Taiyuan Satellite Launch Center

Loading…

Next Passes (next 24 hours)

TLE

FreshSource: Space-Track

Epoch: Sep 14, 2026, 05:04 UTC

1 35382U 03049J   26257.21172137  .00000634  00000-0  26316-3 0  9997
2 35382  98.6874 173.2091 0141437 269.1532  89.3440 14.24718403166281

Track CZ-4 DEB in real time with AllMySat

Download on the App Store